Location: Gro�sch�nbrunn
(49.5760°N, 11.8868°E)
Time: 11:52:53
(UTC+00:00)

Cosmos 2279 Rocket - Pass Details

Date: 18 September 2020
Orbit: 964 x 979 km, 82.9° (Epoch: 23 October)

Event Time Altitude Azimuth Distance (km) Brightness Sun altitude
Exits shadow 20:20:49 76° 127° (SE) 1,010 3.8 -27.9°
Maximum altitude 20:21:06 78° 96° (E) 1,004 3.8 -27.9°
Drops below altitude 10° 20:27:23 10° 12° (NNE) 2,743 6.7 -28.6°
Sets 20:29:54 0° 11° (N) 3,695 7.4 -28.9°
